NOZ2EV EYVI-ENGM

Flight info

Callsign NOZ2EV
Flight time 1h 54m
Altitude 36000
Route ELEKA DCT ASKOR DCT DEREX DCT EBURI N623 ESEBA
Aircraft B738/M-SDE2E3FGHIRWXY/LB1

Departure

Time 2026-05-07 21:11
Airport Vilnius International Airport (EYVI)

Arrival

Time 2026-05-07 23:05
Airport Oslo-Gardermoen International Airport (ENGM)
Time Latitude Longitude Altitude Speed Heading
2026-05-07 20:34 54.64376 25.28281 639 ft 0 kts 206°
2026-05-07 20:57 54.64377 25.28282 639 ft 2 kts 206°
2026-05-07 20:57 54.64400 25.28300 642 ft 3 kts 205°
2026-05-07 20:57 54.64403 25.28302 642 ft 1 kts 205°
2026-05-07 21:03 54.64401 25.28303 639 ft 1 kts 187°
2026-05-07 21:03 54.64400 25.28316 640 ft 1 kts 85°
2026-05-07 21:03 54.64401 25.28330 643 ft 1 kts 79°
2026-05-07 21:04 54.64402 25.28344 642 ft 1 kts 84°
2026-05-07 21:04 54.64400 25.28358 641 ft 1 kts 107°
2026-05-07 21:04 54.64386 25.28374 642 ft 4 kts 159°
2026-05-07 21:04 54.64345 25.28386 642 ft 8 kts 185°
2026-05-07 21:05 54.64269 25.28366 642 ft 15 kts 189°
2026-05-07 21:05 54.64151 25.28330 639 ft 16 kts 189°
2026-05-07 21:05 54.64119 25.28386 639 ft 6 kts 85°
2026-05-07 21:05 54.64121 25.28468 641 ft 8 kts 87°
2026-05-07 21:06 54.64123 25.28584 643 ft 12 kts 88°
2026-05-07 21:06 54.64116 25.28699 645 ft 7 kts 131°
2026-05-07 21:06 54.64053 25.28707 645 ft 13 kts 188°
2026-05-07 21:06 54.64012 25.28681 642 ft 18 kts 202°
2026-05-07 21:07 54.63966 25.28649 639 ft 22 kts 202°
2026-05-07 21:07 54.63794 25.28527 627 ft 32 kts 202°
2026-05-07 21:07 54.63579 25.28376 619 ft 37 kts 202°
2026-05-07 21:07 54.63351 25.28217 616 ft 37 kts 202°
2026-05-07 21:08 54.63160 25.28084 607 ft 35 kts 201°
2026-05-07 21:08 54.62984 25.27963 613 ft 34 kts 202°
2026-05-07 21:08 54.62769 25.27815 600 ft 33 kts 202°
2026-05-07 21:08 54.62582 25.27684 601 ft 16 kts 202°
2026-05-07 21:09 54.62495 25.27684 612 ft 10 kts 131°
2026-05-07 21:09 54.62446 25.27757 605 ft 10 kts 140°
2026-05-07 21:09 54.62416 25.27856 605 ft 10 kts 75°
2026-05-07 21:09 54.62455 25.27912 604 ft 0 kts 22°
2026-05-07 21:10 54.62459 25.27915 604 ft 4 kts 22°
2026-05-07 21:10 54.62602 25.28013 601 ft 58 kts 21°
2026-05-07 21:10 54.63175 25.28411 605 ft 122 kts 22°
2026-05-07 21:10 54.63930 25.28931 692 ft 159 kts 21°
2026-05-07 21:11 54.64979 25.29665 1581 ft 151 kts 20°
2026-05-07 21:11 54.65935 25.30327 2179 ft 166 kts 21°
2026-05-07 21:11 54.68464 25.32052 2663 ft 219 kts 21°
2026-05-07 21:12 54.69940 25.33059 2966 ft 237 kts 21°
2026-05-07 21:12 54.71510 25.34117 3359 ft 256 kts 21°
2026-05-07 21:12 54.73251 25.35287 4058 ft 265 kts 20°
2026-05-07 21:12 54.75035 25.36113 4785 ft 270 kts 360°
2026-05-07 21:13 54.76812 25.35536 5526 ft 268 kts 333°
2026-05-07 21:13 54.78378 25.33900 6341 ft 267 kts 317°
2026-05-07 21:13 54.79445 25.31320 7063 ft 264 kts 289°
2026-05-07 21:13 54.80084 25.28320 7845 ft 267 kts 289°
2026-05-07 21:14 54.80764 25.25330 8570 ft 271 kts 288°
2026-05-07 21:14 54.81220 25.22242 9311 ft 271 kts 277°
2026-05-07 21:14 54.81479 25.18988 10074 ft 274 kts 276°
2026-05-07 21:14 54.81763 25.15652 10462 ft 290 kts 277°
2026-05-07 21:15 54.82083 25.12072 10647 ft 313 kts 278°
2026-05-07 21:15 54.82418 25.08457 10800 ft 332 kts 278°
2026-05-07 21:15 54.82788 25.04534 11250 ft 342 kts 278°
2026-05-07 21:15 54.83174 25.00487 11864 ft 346 kts 278°
2026-05-07 21:16 54.83554 24.96509 12560 ft 349 kts 278°
2026-05-07 21:16 54.83936 24.92489 13252 ft 352 kts 278°
2026-05-07 21:16 54.84336 24.88404 13925 ft 356 kts 280°
2026-05-07 21:16 54.84913 24.84477 14571 ft 359 kts 284°
2026-05-07 21:17 54.85649 24.80377 15273 ft 361 kts 285°
2026-05-07 21:17 54.86423 24.76204 15979 ft 364 kts 285°
2026-05-07 21:17 54.87189 24.72016 16674 ft 366 kts 284°
2026-05-07 21:17 54.87948 24.67777 17352 ft 369 kts 284°
2026-05-07 21:18 54.88699 24.63496 18037 ft 372 kts 283°
2026-05-07 21:18 54.89447 24.59170 18608 ft 376 kts 283°
2026-05-07 21:18 54.90198 24.54796 19179 ft 379 kts 283°
2026-05-07 21:18 54.90939 24.50454 19758 ft 381 kts 283°
2026-05-07 21:19 54.91693 24.46026 20300 ft 384 kts 282°
2026-05-07 21:19 54.92452 24.41554 20849 ft 387 kts 282°
2026-05-07 21:19 54.93226 24.36992 21388 ft 390 kts 282°
2026-05-07 21:19 54.93995 24.32442 21917 ft 393 kts 282°
2026-05-07 21:20 54.94855 24.27863 22407 ft 400 kts 290°
2026-05-07 21:20 54.96491 24.23814 22872 ft 416 kts 311°
2026-05-07 21:20 54.98705 24.20704 23431 ft 424 kts 320°
2026-05-07 21:20 55.00917 24.18186 23800 ft 429 kts 322°
2026-05-07 21:21 55.03132 24.15791 24154 ft 432 kts 323°
2026-05-07 21:21 55.05375 24.13411 24517 ft 434 kts 323°
2026-05-07 21:21 55.07741 24.10898 24882 ft 436 kts 323°
2026-05-07 21:21 55.10342 24.08110 25253 ft 439 kts 323°
2026-05-07 21:22 55.12893 24.05345 25614 ft 441 kts 322°
2026-05-07 21:22 55.15501 24.02491 25977 ft 444 kts 322°
2026-05-07 21:22 55.18100 23.99625 26332 ft 446 kts 322°
2026-05-07 21:22 55.20728 23.96713 26690 ft 449 kts 322°
2026-05-07 21:23 55.23369 23.93776 27041 ft 451 kts 322°
2026-05-07 21:23 55.26028 23.90814 27377 ft 454 kts 321°
2026-05-07 21:23 55.28698 23.87835 27711 ft 456 kts 321°
2026-05-07 21:23 55.31378 23.84840 28104 ft 458 kts 321°
2026-05-07 21:24 55.34071 23.81827 28405 ft 460 kts 321°
2026-05-07 21:24 55.36742 23.78834 28678 ft 463 kts 321°
2026-05-07 21:24 55.39463 23.75779 28969 ft 466 kts 321°
2026-05-07 21:24 55.41647 23.73324 29208 ft 467 kts 321°
2026-05-07 21:25 55.43338 23.71417 29403 ft 468 kts 321°
2026-05-07 21:25 55.45067 23.69459 29616 ft 469 kts 321°
2026-05-07 21:25 55.46748 23.67551 29844 ft 469 kts 321°
2026-05-07 21:25 55.48494 23.65579 30100 ft 469 kts 321°
2026-05-07 21:26 55.50120 23.63740 30320 ft 468 kts 321°
2026-05-07 21:26 55.52392 23.61172 30636 ft 467 kts 321°
2026-05-07 21:26 55.54841 23.58408 31017 ft 464 kts 321°
2026-05-07 21:26 55.57474 23.55434 31410 ft 463 kts 321°
2026-05-07 21:27 55.60151 23.52401 31766 ft 462 kts 320°
2026-05-07 21:27 55.62895 23.49281 32002 ft 464 kts 320°
2026-05-07 21:27 55.65570 23.46230 32274 ft 464 kts 320°
2026-05-07 21:27 55.68276 23.43140 32766 ft 460 kts 320°
2026-05-07 21:28 55.70954 23.40083 33305 ft 455 kts 320°
2026-05-07 21:28 55.73612 23.37039 33620 ft 455 kts 320°
2026-05-07 21:28 55.76270 23.33984 33825 ft 457 kts 320°
2026-05-07 21:28 55.78945 23.30903 34091 ft 457 kts 320°
2026-05-07 21:29 55.81606 23.27837 34393 ft 456 kts 320°
2026-05-07 21:29 55.84268 23.24767 34679 ft 455 kts 320°
2026-05-07 21:29 55.86915 23.21709 34900 ft 455 kts 320°
2026-05-07 21:29 55.89573 23.18631 35132 ft 455 kts 321°
2026-05-07 21:30 55.92218 23.15564 35416 ft 454 kts 321°
2026-05-07 21:30 55.94869 23.12487 35706 ft 452 kts 321°
2026-05-07 21:30 55.97503 23.09423 35935 ft 452 kts 321°
2026-05-07 21:30 56.00100 23.06395 36101 ft 453 kts 321°
2026-05-07 21:31 56.05444 23.00148 36125 ft 456 kts 321°
2026-05-07 21:31 56.10669 22.94033 36101 ft 447 kts 321°
2026-05-07 21:32 56.15861 22.87928 36128 ft 446 kts 321°
2026-05-07 21:32 56.21046 22.81806 36119 ft 447 kts 321°
2026-05-07 21:33 56.26245 22.75650 36126 ft 447 kts 321°
2026-05-07 21:33 56.31436 22.69486 36126 ft 448 kts 321°
2026-05-07 21:34 56.36609 22.63324 36123 ft 448 kts 321°
2026-05-07 21:34 56.41373 22.56276 36156 ft 440 kts 309°
2026-05-07 21:35 56.45678 22.48420 36137 ft 440 kts 309°
2026-05-07 21:35 56.50000 22.40576 36139 ft 440 kts 310°
2026-05-07 21:36 56.54348 22.32762 36135 ft 440 kts 310°
2026-05-07 21:36 56.58689 22.24976 36138 ft 439 kts 310°
2026-05-07 21:37 56.63006 22.17217 36136 ft 438 kts 310°
2026-05-07 21:37 56.67324 22.09425 36139 ft 437 kts 310°
2026-05-07 21:38 56.71506 22.01852 36149 ft 437 kts 310°
2026-05-07 21:38 56.75805 21.94039 36147 ft 436 kts 310°
2026-05-07 21:39 56.80088 21.86228 36148 ft 436 kts 310°
2026-05-07 21:39 56.84338 21.78452 36153 ft 437 kts 310°
2026-05-07 21:40 56.88622 21.70586 36155 ft 437 kts 310°
2026-05-07 21:40 56.91803 21.64727 36153 ft 437 kts 310°
2026-05-07 21:41 56.94497 21.59747 36177 ft 438 kts 310°
2026-05-07 21:41 56.97217 21.54714 36161 ft 438 kts 310°
2026-05-07 21:42 56.98841 21.51709 36157 ft 439 kts 311°
2026-05-07 21:42 57.00344 21.48953 36154 ft 439 kts 310°
2026-05-07 21:43 57.01438 21.46829 36150 ft 437 kts 305°
2026-05-07 21:43 57.02772 21.43825 36121 ft 437 kts 306°
2026-05-07 21:44 57.03874 21.41471 36175 ft 437 kts 308°
2026-05-07 21:44 57.07476 21.34843 36153 ft 440 kts 312°
2026-05-07 21:45 57.11005 21.28679 36152 ft 440 kts 311°
2026-05-07 21:45 57.13148 21.24791 36168 ft 440 kts 310°
2026-05-07 21:46 57.14251 21.22776 36172 ft 440 kts 311°
2026-05-07 21:46 57.15335 21.20790 36174 ft 440 kts 310°
2026-05-07 21:47 57.16268 21.19065 36188 ft 440 kts 311°
2026-05-07 21:47 57.17366 21.17024 36183 ft 440 kts 311°
2026-05-07 21:48 57.18623 21.14651 36179 ft 440 kts 311°
2026-05-07 21:48 57.19643 21.12741 36183 ft 440 kts 311°
2026-05-07 21:49 57.21023 21.10161 36187 ft 440 kts 311°
2026-05-07 21:49 57.22008 21.08343 36181 ft 440 kts 311°
2026-05-07 21:50 57.23177 21.06150 36178 ft 440 kts 311°
2026-05-07 21:50 57.24398 21.03887 36171 ft 441 kts 311°
2026-05-07 21:51 57.25679 21.01498 36163 ft 441 kts 310°
2026-05-07 21:51 57.27050 20.98868 36170 ft 441 kts 310°
2026-05-07 21:52 57.28557 20.95943 36174 ft 441 kts 310°
2026-05-07 21:52 57.30040 20.92910 36172 ft 440 kts 306°
2026-05-07 21:53 57.31314 20.89875 36117 ft 440 kts 306°
2026-05-07 21:53 57.32937 20.86509 36196 ft 440 kts 311°
2026-05-07 21:54 57.34789 20.83082 36158 ft 442 kts 313°
2026-05-07 21:54 57.37110 20.78979 36141 ft 443 kts 313°
2026-05-07 21:55 57.40021 20.73779 36174 ft 442 kts 313°
2026-05-07 21:55 57.42181 20.69794 36185 ft 442 kts 312°
2026-05-07 21:56 57.43934 20.66463 36193 ft 441 kts 311°
2026-05-07 21:56 57.45844 20.62989 36191 ft 442 kts 314°
2026-05-07 21:57 57.47729 20.59494 36190 ft 441 kts 311°
2026-05-07 21:57 57.51560 20.51917 36184 ft 441 kts 311°
2026-05-07 21:58 57.52922 20.49225 36182 ft 441 kts 311°
2026-05-07 21:58 57.56760 20.41700 36181 ft 442 kts 311°
2026-05-07 21:59 57.61003 20.33426 36187 ft 441 kts 311°
2026-05-07 21:59 57.65242 20.25143 36198 ft 441 kts 311°
2026-05-07 22:00 57.69353 20.16658 36204 ft 439 kts 307°
2026-05-07 22:00 57.73134 20.07794 36200 ft 438 kts 306°
2026-05-07 22:01 57.76882 19.98823 36197 ft 436 kts 306°
2026-05-07 22:01 57.80633 19.89904 36192 ft 435 kts 306°
2026-05-07 22:02 57.81959 19.86763 36197 ft 434 kts 306°
2026-05-07 22:02 57.85663 19.77994 36212 ft 432 kts 306°
2026-05-07 22:03 57.89387 19.69158 36195 ft 430 kts 306°
2026-05-07 22:03 57.93087 19.60347 36199 ft 429 kts 306°
2026-05-07 22:04 57.96773 19.51534 36208 ft 428 kts 306°
2026-05-07 22:04 58.00421 19.42780 36212 ft 427 kts 306°
2026-05-07 22:05 58.04088 19.33947 36217 ft 427 kts 306°
2026-05-07 22:05 58.07730 19.25141 36216 ft 428 kts 306°
2026-05-07 22:06 58.11387 19.16266 36211 ft 428 kts 306°
2026-05-07 22:06 58.15046 19.07353 36214 ft 429 kts 306°
2026-05-07 22:07 58.18708 18.98401 36240 ft 430 kts 306°
2026-05-07 22:07 58.22360 18.89437 36221 ft 430 kts 305°
2026-05-07 22:08 58.25985 18.80508 36220 ft 429 kts 305°
2026-05-07 22:08 58.29614 18.71535 36210 ft 428 kts 305°
2026-05-07 22:09 58.33228 18.62564 36214 ft 426 kts 305°
2026-05-07 22:09 58.36819 18.53617 36217 ft 425 kts 305°
2026-05-07 22:10 58.40396 18.44673 36218 ft 423 kts 305°
2026-05-07 22:10 58.43924 18.35816 36217 ft 422 kts 305°
2026-05-07 22:11 58.47462 18.26900 36215 ft 422 kts 305°
2026-05-07 22:11 58.50997 18.17959 36215 ft 422 kts 305°
2026-05-07 22:12 58.54518 18.09018 36216 ft 422 kts 305°
2026-05-07 22:12 58.58032 18.00061 36216 ft 422 kts 305°
2026-05-07 22:13 58.61535 17.91101 36216 ft 423 kts 304°
2026-05-07 22:13 58.65061 17.82047 36252 ft 424 kts 304°
2026-05-07 22:14 58.68578 17.72983 36220 ft 424 kts 304°
2026-05-07 22:14 58.72092 17.63889 36202 ft 422 kts 304°
2026-05-07 22:15 58.75581 17.54826 36199 ft 421 kts 304°
2026-05-07 22:15 58.79048 17.45787 36207 ft 419 kts 304°
2026-05-07 22:16 58.82496 17.36762 36214 ft 417 kts 304°
2026-05-07 22:16 58.85921 17.27763 36204 ft 417 kts 304°
2026-05-07 22:17 58.89326 17.18781 36207 ft 416 kts 304°
2026-05-07 22:17 58.92754 17.09705 36209 ft 415 kts 304°
2026-05-07 22:18 58.97847 16.96154 36208 ft 416 kts 303°
2026-05-07 22:19 59.01247 16.87066 36204 ft 416 kts 303°
2026-05-07 22:19 59.04647 16.77944 36215 ft 417 kts 303°
2026-05-07 22:20 59.08046 16.68786 36202 ft 418 kts 303°
2026-05-07 22:20 59.11440 16.59611 36231 ft 418 kts 303°
2026-05-07 22:21 59.14827 16.50414 36213 ft 417 kts 303°
2026-05-07 22:21 59.18181 16.41273 36192 ft 416 kts 303°
2026-05-07 22:22 59.21517 16.32147 36193 ft 414 kts 303°
2026-05-07 22:22 59.24842 16.23016 36199 ft 412 kts 303°
2026-05-07 22:23 59.28112 16.14000 36193 ft 411 kts 303°
2026-05-07 22:23 59.31402 16.04892 36196 ft 409 kts 302°
2026-05-07 22:24 59.34640 15.95895 36199 ft 409 kts 302°
2026-05-07 22:24 59.37847 15.86950 36193 ft 408 kts 302°
2026-05-07 22:25 59.41108 15.77819 36194 ft 409 kts 302°
2026-05-07 22:25 59.44366 15.68661 36206 ft 409 kts 302°
2026-05-07 22:26 59.47604 15.59526 36200 ft 410 kts 302°
2026-05-07 22:26 59.50859 15.50303 36201 ft 411 kts 302°
2026-05-07 22:27 59.54113 15.41052 36194 ft 412 kts 302°
2026-05-07 22:27 59.57374 15.31741 36209 ft 413 kts 302°
2026-05-07 22:28 59.60527 15.22704 36196 ft 413 kts 302°
2026-05-07 22:28 59.63779 15.13345 36182 ft 411 kts 302°
2026-05-07 22:29 59.66965 15.04142 36197 ft 410 kts 301°
2026-05-07 22:29 59.70112 14.95015 36191 ft 409 kts 301°
2026-05-07 22:30 59.73304 14.85720 36194 ft 408 kts 301°
2026-05-07 22:30 59.76488 14.76416 36187 ft 407 kts 301°
2026-05-07 22:30 59.78029 14.71896 35968 ft 410 kts 301°
2026-05-07 22:31 59.79422 14.66948 35426 ft 408 kts 292°
2026-05-07 22:31 59.80438 14.61717 34884 ft 404 kts 286°
2026-05-07 22:31 59.81067 14.56301 34287 ft 403 kts 281°
2026-05-07 22:31 59.81593 14.50830 33564 ft 403 kts 281°
2026-05-07 22:32 59.82126 14.45408 32977 ft 400 kts 282°
2026-05-07 22:32 59.82659 14.40038 32492 ft 394 kts 282°
2026-05-07 22:32 59.83184 14.34785 32042 ft 389 kts 282°
2026-05-07 22:32 59.83708 14.29544 31551 ft 386 kts 282°
2026-05-07 22:33 59.84227 14.24349 31104 ft 381 kts 282°
2026-05-07 22:33 59.84740 14.19201 30648 ft 377 kts 282°
2026-05-07 22:33 59.85245 14.14105 30187 ft 374 kts 282°
2026-05-07 22:33 59.85743 14.09070 29683 ft 370 kts 282°
2026-05-07 22:34 59.86232 14.04095 29223 ft 364 kts 282°
2026-05-07 22:34 59.86705 13.99267 28782 ft 360 kts 282°
2026-05-07 22:34 59.87180 13.94395 28340 ft 355 kts 282°
2026-05-07 22:34 59.87639 13.89672 27892 ft 351 kts 282°
2026-05-07 22:35 59.88105 13.84859 27450 ft 347 kts 282°
2026-05-07 22:35 59.88559 13.80149 27017 ft 344 kts 282°
2026-05-07 22:35 59.89006 13.75492 26575 ft 342 kts 282°
2026-05-07 22:35 59.89445 13.70906 26144 ft 340 kts 282°
2026-05-07 22:36 59.89883 13.66305 25723 ft 341 kts 282°
2026-05-07 22:36 59.90322 13.61687 25294 ft 345 kts 281°
2026-05-07 22:36 59.90765 13.56998 24866 ft 343 kts 281°
2026-05-07 22:36 59.91203 13.52343 24432 ft 340 kts 281°
2026-05-07 22:37 59.91636 13.47727 23988 ft 339 kts 281°
2026-05-07 22:37 59.92066 13.43121 23559 ft 336 kts 281°
2026-05-07 22:37 59.92491 13.38556 23083 ft 333 kts 281°
2026-05-07 22:37 59.92908 13.34046 22670 ft 330 kts 281°
2026-05-07 22:38 59.93323 13.29558 22230 ft 327 kts 281°
2026-05-07 22:38 59.93732 13.25108 21818 ft 326 kts 281°
2026-05-07 22:38 59.94133 13.20729 21399 ft 326 kts 281°
2026-05-07 22:38 59.94542 13.16246 21003 ft 332 kts 280°
2026-05-07 22:39 59.94958 13.11667 20571 ft 340 kts 280°
2026-05-07 22:39 59.95378 13.07026 20132 ft 339 kts 280°
2026-05-07 22:39 59.95792 13.02425 19704 ft 336 kts 280°
2026-05-07 22:39 59.96203 12.97847 19278 ft 333 kts 279°
2026-05-07 22:40 59.96607 12.93325 18870 ft 331 kts 279°
2026-05-07 22:40 59.97008 12.88820 18447 ft 329 kts 279°
2026-05-07 22:40 59.97401 12.84398 17981 ft 326 kts 279°
2026-05-07 22:40 59.97800 12.79891 17537 ft 324 kts 279°
2026-05-07 22:41 59.98181 12.75547 17139 ft 320 kts 279°
2026-05-07 22:41 59.98562 12.71193 16709 ft 318 kts 279°
2026-05-07 22:41 59.98939 12.66846 16210 ft 318 kts 279°
2026-05-07 22:41 59.99315 12.62488 15791 ft 316 kts 279°
2026-05-07 22:42 59.99686 12.58168 15379 ft 314 kts 279°
2026-05-07 22:42 60.00053 12.53889 15126 ft 308 kts 279°
2026-05-07 22:42 60.00408 12.49745 14985 ft 298 kts 279°
2026-05-07 22:42 60.00750 12.45720 14858 ft 289 kts 279°
2026-05-07 22:43 60.01077 12.41853 14772 ft 279 kts 279°
2026-05-07 22:43 60.01193 12.38045 14502 ft 276 kts 261°
2026-05-07 22:43 60.00669 12.34409 14202 ft 275 kts 254°
2026-05-07 22:43 60.00147 12.30665 13829 ft 276 kts 256°
2026-05-07 22:44 59.99670 12.27019 13507 ft 274 kts 256°
2026-05-07 22:44 59.99186 12.23353 13217 ft 272 kts 256°
2026-05-07 22:44 59.98703 12.19730 12937 ft 269 kts 256°
2026-05-07 22:44 59.98222 12.16139 12678 ft 265 kts 256°
2026-05-07 22:45 59.97743 12.12619 12434 ft 262 kts 256°
2026-05-07 22:45 59.97263 12.09102 12115 ft 261 kts 255°
2026-05-07 22:45 59.96785 12.05613 11849 ft 263 kts 255°
2026-05-07 22:45 59.96296 12.02043 11554 ft 268 kts 255°
2026-05-07 22:46 59.95799 11.98429 11256 ft 274 kts 255°
2026-05-07 22:46 59.95292 11.94736 10939 ft 277 kts 255°
2026-05-07 22:46 59.94785 11.91059 10682 ft 273 kts 255°
2026-05-07 22:46 59.94287 11.87454 10565 ft 265 kts 254°
2026-05-07 22:47 59.93809 11.84010 10444 ft 257 kts 254°
2026-05-07 22:47 59.93338 11.80620 10324 ft 250 kts 254°
2026-05-07 22:47 59.92839 11.77386 10208 ft 245 kts 245°
2026-05-07 22:47 59.91788 11.74912 10181 ft 238 kts 212°
2026-05-07 22:48 59.90299 11.73596 10173 ft 238 kts 198°
2026-05-07 22:48 59.88641 11.72946 10200 ft 244 kts 191°
2026-05-07 22:48 59.86949 11.72383 10186 ft 248 kts 192°
2026-05-07 22:48 59.85251 11.71782 10181 ft 247 kts 192°
2026-05-07 22:49 59.83605 11.71186 10173 ft 246 kts 193°
2026-05-07 22:49 59.81947 11.70569 10168 ft 244 kts 195°
2026-05-07 22:49 59.80418 11.69330 10184 ft 238 kts 215°
2026-05-07 22:49 59.79040 11.67521 10180 ft 239 kts 213°
2026-05-07 22:50 59.77655 11.65890 10185 ft 239 kts 212°
2026-05-07 22:50 59.76210 11.64221 10188 ft 240 kts 212°
2026-05-07 22:50 59.74764 11.62556 10184 ft 241 kts 212°
2026-05-07 22:50 59.73311 11.60885 10182 ft 242 kts 212°
2026-05-07 22:51 59.71929 11.59169 10166 ft 243 kts 221°
2026-05-07 22:51 59.70856 11.56646 10198 ft 240 kts 235°
2026-05-07 22:51 59.69850 11.54059 10184 ft 242 kts 232°
2026-05-07 22:51 59.68825 11.51587 10183 ft 243 kts 231°
2026-05-07 22:52 59.67786 11.49099 10180 ft 244 kts 231°
2026-05-07 22:52 59.66717 11.46541 10162 ft 244 kts 231°
2026-05-07 22:52 59.65645 11.43979 10172 ft 243 kts 231°
2026-05-07 22:52 59.64692 11.41231 10159 ft 243 kts 246°
2026-05-07 22:53 59.64113 11.38108 10187 ft 242 kts 249°
2026-05-07 22:53 59.63500 11.35037 10189 ft 241 kts 248°
2026-05-07 22:53 59.63059 11.31882 10159 ft 242 kts 270°
2026-05-07 22:53 59.63264 11.29732 10190 ft 242 kts 292°
2026-05-07 22:54 59.64247 11.27040 9970 ft 253 kts 318°
2026-05-07 22:54 59.65741 11.25402 9727 ft 259 kts 340°
2026-05-07 22:54 59.67517 11.24458 9445 ft 258 kts 343°
2026-05-07 22:54 59.69218 11.23599 9167 ft 257 kts 343°
2026-05-07 22:55 59.70940 11.22730 8894 ft 256 kts 343°
2026-05-07 22:55 59.72660 11.21853 8632 ft 254 kts 343°
2026-05-07 22:55 59.74365 11.20976 8372 ft 252 kts 343°
2026-05-07 22:55 59.76059 11.20097 8130 ft 251 kts 344°
2026-05-07 22:56 59.77712 11.19236 7880 ft 249 kts 344°
2026-05-07 22:56 59.79162 11.18477 7660 ft 248 kts 344°
2026-05-07 22:56 59.80801 11.17617 7402 ft 247 kts 344°
2026-05-07 22:56 59.82462 11.16744 7180 ft 246 kts 344°
2026-05-07 22:57 59.84108 11.15877 6920 ft 245 kts 345°
2026-05-07 22:57 59.85744 11.15014 6674 ft 244 kts 345°
2026-05-07 22:57 59.87358 11.14162 6300 ft 248 kts 345°
2026-05-07 22:57 59.89007 11.13290 6032 ft 248 kts 345°
2026-05-07 22:58 59.90664 11.12413 5785 ft 243 kts 345°
2026-05-07 22:58 59.92266 11.11509 5528 ft 236 kts 338°
2026-05-07 22:58 59.93449 11.09878 5288 ft 226 kts 310°
2026-05-07 22:58 59.94459 11.07590 5071 ft 222 kts 312°
2026-05-07 22:59 59.95543 11.05407 4835 ft 219 kts 313°
2026-05-07 22:59 59.96619 11.03255 4595 ft 213 kts 313°
2026-05-07 22:59 59.97657 11.01222 4385 ft 203 kts 318°
2026-05-07 22:59 59.98909 11.00157 4159 ft 197 kts
2026-05-07 23:00 60.00231 11.00805 4040 ft 198 kts 19°
2026-05-07 23:00 60.01548 11.01514 3808 ft 193 kts 16°
2026-05-07 23:00 60.02824 11.02205 3605 ft 185 kts 17°
2026-05-07 23:00 60.03998 11.02875 3504 ft 172 kts 18°
2026-05-07 23:01 60.04997 11.03455 3307 ft 168 kts 17°
2026-05-07 23:01 60.05952 11.04011 3116 ft 162 kts 17°
2026-05-07 23:01 60.06972 11.04605 2922 ft 159 kts 17°
2026-05-07 23:01 60.07996 11.05200 2744 ft 156 kts 17°
2026-05-07 23:02 60.09039 11.05807 2497 ft 155 kts 17°
2026-05-07 23:02 60.10040 11.06389 2277 ft 153 kts 17°
2026-05-07 23:02 60.11072 11.06989 2070 ft 152 kts 16°
2026-05-07 23:02 60.12038 11.07550 1872 ft 152 kts 16°
2026-05-07 23:03 60.12951 11.08081 1675 ft 151 kts 16°
2026-05-07 23:03 60.13830 11.08592 1473 ft 146 kts 16°
2026-05-07 23:03 60.14846 11.09182 1262 ft 142 kts 16°
2026-05-07 23:03 60.15794 11.09735 1061 ft 140 kts 16°
2026-05-07 23:04 60.16643 11.10229 889 ft 139 kts 15°
2026-05-07 23:04 60.17372 11.10654 748 ft 138 kts 16°
2026-05-07 23:04 60.18043 11.11049 684 ft 131 kts 15°
2026-05-07 23:04 60.18798 11.11484 680 ft 90 kts 16°
2026-05-07 23:05 60.19095 11.11656 686 ft 58 kts 16°
2026-05-07 23:05 60.19441 11.11856 688 ft 28 kts 16°
2026-05-07 23:05 60.19615 11.11882 689 ft 19 kts 351°
2026-05-07 23:05 60.19685 11.11829 686 ft 10 kts 316°
2026-05-07 23:06 60.19707 11.11732 682 ft 9 kts 289°
2026-05-07 23:06 60.19720 11.11621 686 ft 4 kts 258°
2026-05-07 23:06 60.19694 11.11602 684 ft 6 kts 185°
2026-05-07 23:06 60.19649 11.11583 685 ft 9 kts 194°
2026-05-07 23:07 60.19574 11.11539 680 ft 13 kts 197°
2026-05-07 23:07 60.19489 11.11490 684 ft 13 kts 196°
2026-05-07 23:07 60.19421 11.11450 684 ft 7 kts 196°
2026-05-07 23:07 60.19377 11.11426 683 ft 6 kts 195°
2026-05-07 23:08 60.19334 11.11401 678 ft 6 kts 197°
2026-05-07 23:08 60.19299 11.11380 683 ft 6 kts 196°
2026-05-07 23:08 60.19266 11.11362 683 ft 6 kts 195°
2026-05-07 23:08 60.19233 11.11343 684 ft 6 kts 195°
2026-05-07 23:09 60.19196 11.11321 681 ft 6 kts 196°
2026-05-07 23:09 60.19158 11.11288 684 ft 7 kts 226°
2026-05-07 23:09 60.19158 11.11182 683 ft 9 kts 286°
2026-05-07 23:09 60.19171 11.11093 682 ft 10 kts 287°
2026-05-07 23:10 60.19190 11.10965 682 ft 11 kts 287°
2026-05-07 23:10 60.19209 11.10824 679 ft 11 kts 285°
2026-05-07 23:10 60.19227 11.10722 679 ft 8 kts 307°
2026-05-07 23:10 60.19265 11.10690 682 ft 3 kts 340°
2026-05-07 23:11 60.19281 11.10678 679 ft 1 kts 339°
2026-05-07 23:11 60.19284 11.10676 680 ft 0 kts 339°
2026-05-07 23:11 60.19285 11.10675 680 ft 1 kts 339°
2026-05-07 23:11 60.19293 11.10669 682 ft 1 kts 339°
2026-05-07 23:12 60.19213 11.10738 681 ft 0 kts 336°
2026-05-07 23:12 60.19240 11.10712 682 ft 8 kts 334°
2026-05-07 23:12 60.19281 11.10678 679 ft 1 kts 338°
2026-05-07 23:13 60.19283 11.10676 680 ft 0 kts 338°